Nantes, France

6:34 AM CEST on May 27, 2018 (GMT +0200)
Nantes / Atlantique

Weather History for LFRS - January, 2014

Change the Weather History Date:

Tuesday, January 21, 2014

  Actual Average Record
Temperature  
Mean Temperature 38 °F -  
Max Temperature 48 °F 47 °F 55 °F (2005)
Min Temperature 29 °F 36 °F 19 °F (2017)
Degree Days  
Heating Degree Days 26    
Moisture  
Dew Point 38 °F    
Average Humidity 94    
Maximum Humidity 100    
Minimum Humidity 75    
Precipitation  
Precipitation 0.01 in 0.10 in - ()
Sea Level Pressure  
Sea Level Pressure 29.90 in    
Wind  
Wind Speed 4 mph ()    
Max Wind Speed 14 mph    
Max Gust Speed -    
Visibility 4.1 miles    
Events Fog , Rain    
Averages and records for this station are not official NWS values.
T = Trace of Precipitation, MM = Missing Value Source: Averaged Metar Reports

Daily Weather History Graph

Daily Weather History Graph

Search for Another Location

Airport or City:

Astronomy

Jan. 21, 2014 Rise Set
Actual Time 8:43 AM CET 5:51 PM CET
Civil Twilight 8:10 AM CET 6:25 PM CET
Nautical Twilight 7:32 AM CET 7:03 PM CET
Astronomical Twilight 6:56 AM CET 7:39 PM CET
Moon 11:35 PM CET (1/21) 10:43 AM CET (1/21)
Length of Visible Light 10h 15m
Length of Day
9h 08m
Waning Gibbous, 77% of the Moon is Illuminated
Jan 21
Waning Gibbous
Jan 24
Last Quarter
Jan 30
New
Feb 6
First Quarter
Feb 15
Full

Hourly Weather History & Observations

Time (CET) Temp. Windchill Dew Point Humidity Pressure Visibility Wind Dir Wind Speed Gust Speed Precip Events Conditions
12:00 AM 35 °F - 35 °F 99% 29.98 in 0 mi Calm Calm - - Fog Partial Fog
12:00 AM 35.6 °F - 35.6 °F 100% 29.98 in 0.2 mi Calm Calm - N/A Fog Fog
12:30 AM 33.8 °F - 33.8 °F 100% 29.98 in 0.2 mi Calm Calm - N/A Fog Fog
1:00 AM 33 °F - 33 °F 100% 29.99 in 0 mi Calm Calm - - Fog Partial Fog
1:00 AM 33.8 °F - 33.8 °F 100% 29.98 in 0.2 mi Calm Calm - N/A Fog Fog
1:30 AM 32.0 °F - 32.0 °F 100% 29.98 in 0.2 mi Calm Calm - N/A Fog Fog
2:00 AM 32 °F - 32 °F 100% 29.98 in 0 mi Calm Calm - - Fog Partial Fog
2:00 AM 32.0 °F - 32.0 °F 100% 29.95 in 0.2 mi Calm Calm - N/A Fog Fog
2:30 AM 32.0 °F - 32.0 °F 100% 29.95 in 0.2 mi Calm Calm - N/A Fog Fog
3:00 AM 31 °F - 31 °F 100% 29.98 in 0 mi SSE 2.3 mph - - Fog Heavy Fog
3:00 AM 32.0 °F - 30.2 °F 93% 29.95 in 0.1 mi SSE 2.3 mph - N/A Fog Light Freezing Fog
3:30 AM 30.2 °F - 30.2 °F 100% 29.98 in 0.1 mi Calm Calm - N/A Fog Light Freezing Fog
4:00 AM 30 °F - 30 °F 100% 29.98 in 0 mi SE 1.2 mph - - Fog Heavy Fog
4:00 AM 30.2 °F - 30.2 °F 100% 29.98 in 0.1 mi Variable 1.2 mph - N/A Fog Light Freezing Fog
4:30 AM 30.2 °F - 30.2 °F 100% 29.98 in 0.1 mi Calm Calm - N/A Fog Light Freezing Fog
5:00 AM 30 °F - 30 °F 100% 29.98 in 0 mi ESE 2.3 mph - - Fog Partial Fog
5:00 AM 30.2 °F - 30.2 °F 100% 29.98 in 0.2 mi Variable 2.3 mph - N/A Fog Fog
5:30 AM 30.2 °F - 30.2 °F 100% 29.95 in 0.2 mi Calm Calm - N/A Fog Fog
6:00 AM 30 °F - 30 °F 100% 29.98 in 0 mi Calm Calm - - Fog Partial Fog
6:00 AM 30.2 °F - 30.2 °F 100% 29.95 in 0.2 mi Calm Calm - N/A Fog Fog
6:30 AM 30.2 °F - 30.2 °F 100% 29.95 in 0.3 mi Calm Calm - N/A Fog Fog
7:00 AM 31 °F - 31 °F 99% 29.97 in 0 mi Calm Calm - - Fog Partial Fog
7:00 AM 30.2 °F - 30.2 °F 100% 29.95 in 0.5 mi Calm Calm - N/A Fog Fog
7:30 AM 30.2 °F - 30.2 °F 100% 29.95 in 0.5 mi Calm Calm - N/A Fog Fog
8:00 AM 31 °F - 31 °F 97% 29.97 in 2 mi Calm Calm - - Fog Light Fog
8:00 AM 30.2 °F - 30.2 °F 100% 29.95 in 1.6 mi Calm Calm - N/A   Scattered Clouds
8:30 AM 30.2 °F - 30.2 °F 100% 29.95 in 3.1 mi Calm Calm - N/A   Mostly Cloudy
9:00 AM 31 °F - 31 °F 100% 29.98 in 6 mi Calm Calm - -   Partly Cloudy
9:00 AM 30.2 °F - 30.2 °F 100% 29.95 in - Calm Calm - N/A   Clear
9:30 AM 32.0 °F - 32.0 °F 100% 29.95 in - Calm Calm - N/A   Clear
10:00 AM 33 °F - 33 °F 97% 29.97 in 6 mi SSE 6.9 mph - -   Partly Cloudy
10:00 AM 32.0 °F 25.6 °F 32.0 °F 100% 29.95 in - SSE 6.9 mph - N/A   Clear
10:30 AM 33.8 °F 28.6 °F 33.8 °F 100% 29.95 in 5.0 mi SSE 5.8 mph - N/A   Unknown
11:00 AM 35 °F - 35 °F 100% 29.96 in 6 mi SSE 6.9 mph - -   Scattered Clouds
11:00 AM 35.6 °F 29.9 °F 35.6 °F 100% 29.95 in - SSE 6.9 mph - N/A   Clear
11:30 AM 39.2 °F 34.2 °F 39.2 °F 100% 29.95 in - SE 6.9 mph - N/A   Clear
12:00 PM 42 °F - 42 °F 98% 29.95 in 12 mi SSE 8.1 mph - -   Scattered Clouds
12:00 PM 42.8 °F 38.0 °F 41.0 °F 93% 29.95 in - SSE 8.1 mph - N/A   Clear
12:30 PM 46.4 °F 41.9 °F 42.8 °F 87% 29.92 in - SSE 9.2 mph - N/A   Clear
1:00 PM 46 °F - 42 °F 80% 29.92 in 12 mi SSE 9.2 mph - -   Partly Cloudy
1:00 PM 46.4 °F 41.9 °F 41.0 °F 81% 29.89 in - SSE 9.2 mph - N/A   Clear
1:30 PM 48.2 °F - 42.8 °F 82% 29.89 in - SSE 10.4 mph - N/A   Clear
2:00 PM 48 °F - 42 °F 75% 29.88 in 12 mi SSE 10.4 mph - -   Partly Cloudy
2:00 PM 48.2 °F - 42.8 °F 82% 29.86 in 6.2 mi SSE 10.4 mph - N/A   Scattered Clouds
2:30 PM 48.2 °F - 42.8 °F 82% 29.86 in 6.2 mi SSE 10.4 mph - N/A   Mostly Cloudy
3:00 PM 48 °F - 43 °F 75% 29.86 in 12 mi SSE 10.4 mph - -   Mostly Cloudy
3:00 PM 48.2 °F - 42.8 °F 82% 29.86 in 6.2 mi SSE 10.4 mph - N/A   Mostly Cloudy
3:30 PM 48.2 °F - 42.8 °F 82% 29.83 in 6.2 mi SSE 11.5 mph - N/A   Mostly Cloudy
4:00 PM 47 °F - 43 °F 79% 29.86 in 6 mi SSE 11.5 mph - - Rain Light Rain
4:00 PM 48.2 °F - 42.8 °F 82% 29.83 in 5.6 mi SSE 12.7 mph - N/A Rain Light Rain
4:30 PM 46.4 °F 41.1 °F 42.8 °F 87% 29.83 in 5.6 mi SSE 11.5 mph - N/A Rain Light Rain
5:00 PM 47 °F - 43 °F 81% 29.84 in 7 mi SSE 11.5 mph - - Rain Light Rain
5:00 PM 46.4 °F 41.1 °F 42.8 °F 87% 29.83 in 6.2 mi SSE 11.5 mph - N/A   Mostly Cloudy
5:30 PM 46.4 °F 40.7 °F 42.8 °F 87% 29.83 in 6.2 mi SSE 12.7 mph - N/A   Mostly Cloudy
6:00 PM 46 °F - 43 °F 87% 29.83 in 7 mi SSE 12.7 mph - -   Mostly Cloudy
6:00 PM 46.4 °F 40.7 °F 42.8 °F 87% 29.80 in 6.2 mi SSE 12.7 mph - N/A   Mostly Cloudy
6:30 PM 46.4 °F 40.7 °F 44.6 °F 93% 29.80 in 6.2 mi SSE 12.7 mph - N/A   Mostly Cloudy
7:00 PM 46 °F - 44 °F 89% 29.81 in 7 mi SSE 12.7 mph - - Rain Light Rain
7:00 PM 46.4 °F 40.7 °F 44.6 °F 93% 29.80 in 6.2 mi SSE 12.7 mph - N/A Rain Light Rain
7:30 PM 46.4 °F 40.7 °F 44.6 °F 93% 29.80 in 6.2 mi SSE 12.7 mph - N/A   Mostly Cloudy
8:00 PM 46 °F - 45 °F 94% 29.80 in 7 mi SSE 12.7 mph - - Rain Light Rain
8:00 PM 46.4 °F 40.7 °F 44.6 °F 93% 29.80 in 6.2 mi SSE 12.7 mph - N/A   Mostly Cloudy
8:30 PM 46.4 °F 40.4 °F 44.6 °F 93% 29.77 in 4.3 mi SSE 13.8 mph - N/A Rain Light Rain
9:00 PM 46 °F - 45 °F 93% 29.79 in 6 mi SSE 13.8 mph - - Rain Light Rain
9:00 PM 46.4 °F 40.4 °F 44.6 °F 93% 29.77 in 6.2 mi SSE 13.8 mph - N/A Rain Light Rain
9:30 PM 46.4 °F 40.4 °F 44.6 °F 93% 29.77 in 6.2 mi SSE 13.8 mph - N/A Rain Light Rain
10:00 PM 46 °F - 45 °F 94% 29.78 in 7 mi SSE 12.7 mph - - Rain Light Rain
10:00 PM 46.4 °F 40.4 °F 44.6 °F 93% 29.77 in 6.2 mi SSE 13.8 mph - N/A   Mostly Cloudy
10:30 PM 46.4 °F 40.7 °F 44.6 °F 93% 29.77 in 6.2 mi SSE 12.7 mph - N/A   Mostly Cloudy
11:00 PM 46 °F - 45 °F 94% 29.77 in 7 mi SSE 12.7 mph - - Rain Light Rain
11:00 PM 46.4 °F 40.7 °F 44.6 °F 93% 29.74 in 6.2 mi SSE 12.7 mph - N/A Rain Light Rain
11:30 PM 46.4 °F 41.1 °F 44.6 °F 93% 29.74 in 6.2 mi SSE 11.5 mph - N/A   Mostly Cloudy